Location: Berg
(47.2344°N, 9.5296°E)
Time: 23:00:00
(UTC+00:00)

CZ-2D R/B - Pass Details

Date: 24 January 2021
Orbit: 521 x 537 km, 97.4° (Epoch: 04 March)

Event Time Altitude Azimuth Distance (km) Brightness Sun altitude
Rises 17:42:04 0° 173° (S) 2,669 6.9 -15.2°
Reaches altitude 10° 17:44:11 10° 176° (S) 1,781 6.0 -15.5°
Maximum altitude 17:48:00 66° 259° (W) 586 3.6 -16.2°
Drops below altitude 10° 17:51:50 10° 342° (NNW) 1,786 6.0 -16.8°
Sets 17:53:58 0° 345° (NNW) 2,678 6.9 -17.1°
